FW4331 Weather Reports


time (UTC)temp
C
wind
direction
speed
KPH
gust
KPH
rain 1hr
cm
rain 24hr
cm
rain mn
cm
humidity
%
barometer
mb
20260905133035 25 359 0.0 4.8 0.00 1.98 0.00 34 1010.7
20260905131516 25 6 0.0 4.8 0.00 1.98 0.00 33 1010.6
20260905130015 24 316 0.0 3.2 0.00 1.98 0.00 35 1010.6
20260905124606 23 29 0.0 0.0 0.00 1.98 0.00 41 1010.7
20260905123002 22 30 0.0 0.0 0.00 1.98 0.00 43 1010.7
20260905121603 22 31 0.0 3.2 0.00 1.98 0.00 42 1010.7
20260905120054 22 1 0.0 1.6 0.00 1.98 0.00 45 1010.5
20260905114551 21 1 0.0 1.6 0.00 1.98 0.00 47 1010.5
20260905113051 21 1 0.0 0.0 0.00 1.98 0.00 49 1010.5
20260905111634 20 1 0.0 0.0 0.00 1.98 0.00 49 1010.5
20260905110043 -17 0.0 0.0 0.00 1.98 0.00 1010.6
20260905104537 -17 0.0 0.0 0.00 1.98 0.00 1009.9
20260905103034 -17 0.0 0.0 0.00 1.98 0.00 1009.7
20260905101534 -17 0.0 0.0 0.00 1.98 0.00 1009.5
20260905100022 -17 13 0.0 3.2 0.00 1.98 0.00 1009.4
20260905094517 20 278 0.0 0.0 0.00 1.98 0.00 49 1009.4
20260905093016 20 277 0.0 0.0 0.00 1.98 0.00 49 1009.3
20260905091516 20 277 0.0 0.0 0.00 1.98 0.00 49 1009.4
20260905090017 21 277 0.0 0.0 0.00 1.98 0.00 49 1009.4
20260905084509 20 277 0.0 0.0 0.00 1.98 0.00 49 1009.4
20260905083008 20 277 0.0 0.0 0.00 1.98 0.00 48 1009.4
20260905081503 21 276 0.0 0.0 0.00 1.98 0.00 48 1009.6
20260905080117 21 276 0.0 0.0 0.00 1.98 0.00 48 1009.6
20260905074557 21 276 0.0 1.6 0.00 1.98 0.00 48 1009.8
20260905073058 21 276 0.0 0.0 0.00 1.98 0.00 48 1009.8
20260905071552 21 276 0.0 0.0 0.00 1.98 0.00 49 1009.9
20260905070049 21 276 0.0 0.0 0.00 1.98 0.00 48 1010.0
20260905064546 21 276 0.0 0.0 0.00 1.98 0.00 48 1010.1
20260905063043 21 276 0.0 1.6 0.00 1.98 0.00 48 1010.3
20260905061538 21 266 0.0 1.6 0.00 1.98 0.00 49 1010.4
20260905060036 21 269 0.0 0.0 0.00 1.98 0.00 49 1010.8
20260905054537 21 269 0.0 0.0 0.00 2.01 0.00 48 1010.8
20260905053030 21 269 0.0 0.0 0.00 2.01 0.00 48 1011.0
20260905051534 21 269 0.0 1.6 0.00 2.01 0.00 48 1011.2
20260905050021 21 269 0.0 1.6 0.00 2.01 0.00 49 1011.2
20260905044520 22 269 0.0 0.0 0.00 2.03 0.00 49 1011.4
20260905043017 21 269 0.0 1.6 0.00 2.03 0.00 49 1011.5
20260905041514 21 262 1.6 3.2 0.00 2.03 0.00 49 1011.5
20260905040011 21 276 0.0 1.6 0.00 2.03 0.00 48 1011.7
20260905034508 21 269 0.0 1.6 0.00 3.33 2.03 48 1011.9
20260905033013 22 274 1.6 3.2 0.00 3.33 2.03 49 1012.0
20260905031615 21 285 0.0 4.8 0.00 3.33 2.03 49 1011.9
20260905030002 21 241 0.0 0.0 0.00 3.33 2.03 49 1011.8
20260905024601 21 228 0.0 1.6 0.00 3.33 2.03 49 1011.8
20260905023124 21 237 0.0 3.2 0.00 3.33 2.03 49 1011.9
20260905021556 21 240 0.0 1.6 0.00 3.33 2.03 48 1011.6
20260905020054 22 199 0.0 3.2 0.00 3.33 2.03 48 1011.3
20260905014655 22 146 0.0 3.2 0.00 3.33 2.03 48 1011.1
20260905013050 22 301 0.0 0.0 0.00 3.33 2.03 49 1011.1
20260905011551 22 302 0.0 1.6 0.00 3.33 2.03 48 1010.8
20260905004545 22 295 1.6 8.0 0.00 3.33 2.03 48 1010.7
20260905003043 22 241 0.0 1.6 0.00 3.33 2.03 48 1010.7
20260905001548 22 152 0.0 1.6 0.00 3.33 2.03 48 1010.6
20260905000038 22 160 0.0 3.2 0.00 3.33 2.03 48 1010.6
20260904234537 22 162 1.6 3.2 0.00 3.33 2.03 48 1010.7
20260904233041 22 223 0.0 1.6 0.00 3.33 2.03 48 1010.8
20260904231539 22 227 0.0 3.2 0.00 3.33 2.03 48 1010.9
20260904230057 22 238 0.0 3.2 0.00 3.33 2.03 48 1010.8
20260904224530 22 240 0.0 3.2 0.00 3.33 2.03 48 1010.4
20260904223028 22 275 0.0 0.0 0.00 3.33 2.03 48 1010.4
20260904221525 22 275 0.0 1.6 0.00 3.33 2.03 48 1010.5
20260904220027 21 257 0.0 3.2 0.00 3.33 2.03 48 1011.0
20260904214522 21 275 3.2 8.0 0.00 3.33 2.03 48 1011.5
20260904213028 21 269 0.0 1.6 0.00 3.33 2.03 48 1011.3
20260904211517 21 296 0.0 1.6 0.30 3.33 2.03 48 1011.3
20260904210016 21 346 0.0 6.4 1.98 3.33 2.03 47 1011.3
20260904204525 20 354 3.2 11.3 1.98 3.33 2.03 44 1011.5
20260904203017 20 37 0.0 4.8 1.98 3.33 2.03 48 1011.2
20260904201510 21 251 20.9 51.5 1.57 2.90 1.63 62 1012.8
20260904200005 30 286 3.2 4.8 0.00 1.35 0.05 55 1011.8
20260904194503 31 251 3.2 6.4 0.00 1.35 0.05 50 1010.7
20260904193001 31 257 3.2 9.7 0.00 1.35 0.05 49 1010.9
20260904191600 32 278 3.2 9.7 0.00 1.35 0.05 48 1010.9
20260904190100 33 285 1.6 8.0 0.00 1.35 0.05 44 1010.9
20260904184559 33 212 3.2 8.0 0.00 1.35 0.05 45 1011.2
20260904183113 32 217 1.6 9.7 0.00 1.35 0.05 47 1011.6
20260904181554 32 261 4.8 9.7 0.00 1.35 0.05 47 1011.8
20260904180058 32 285 1.6 11.3 0.00 1.35 0.05 45 1012.0
20260904174552 32 328 4.8 9.7 0.00 1.35 0.05 46 1012.3
20260904173056 32 37 3.2 9.7 0.00 1.35 0.05 45 1012.3
20260904171607 31 13 4.8 11.3 0.00 1.35 0.05 47 1012.2
20260904170047 31 293 1.6 11.3 0.00 1.35 0.05 47 1012.6
20260904164554 31 25 4.8 14.5 0.00 1.35 0.05 47 1012.7
20260904163043 31 329 3.2 8.0 0.00 1.35 0.05 46 1012.8
20260904161546 30 32 4.8 14.5 0.00 1.35 0.05 48 1012.8
20260904160038 30 31 6.4 19.3 0.00 1.35 0.05 47 1012.9
20260904154535 30 12 6.4 14.5 0.00 1.35 0.05 48 1013.0
20260904153048 30 41 8.0 16.1 0.00 1.35 0.05 47 1013.0
20260904151526 30 25 4.8 12.9 0.00 1.35 0.05 48 1012.9
20260904150033 30 54 3.2 14.5 0.00 1.35 0.05 30 1013.0
20260904144519 28 329 1.6 8.0 0.00 1.35 0.05 26 1013.1
20260904143021 28 345 4.8 14.5 0.00 1.35 0.05 23 1013.2
20260904141513 28 284 3.2 11.3 0.00 1.35 0.05 27 1013.4
20260904140002 27 254 0.0 6.4 0.00 1.35 0.05 30 1013.3
20260904134601 27 14 1.6 6.4 0.00 1.35 0.05 31 1013.3